• en Belgique
  • Liste des pays
  • À 7 jours
  • Température de l'eau
  • Carte satellitaire
  • Carte météo
  • Widgets météo
  • user-avatar
    Se connecter

    Météo par heure à Rostek

    Ce jour, 21 Octobre, Dimanche

    Heure Température Précipitation Vent Pression Humidité
    00:00 +6°C° 0 mm 1 m/s 751 mmHg 91%
    01:00 +6°C° 0 mm 1 m/s 751 mmHg 92%
    02:00 +5°C° 0 mm 1 m/s 752 mmHg 92%
    03:00 +5°C° 0 mm 1 m/s 752 mmHg 92%
    04:00 +5°C° 0 mm 1 m/s 752 mmHg 93%
    05:00 +5°C° 0 mm 1 m/s 752 mmHg 93%
    06:00 +5°C° 0 mm 1 m/s 752 mmHg 93%
    07:00 +5°C° 0 mm 1 m/s 753 mmHg 93%
    08:00 +7°C° 0 mm 1 m/s 753 mmHg 86%
    09:00 +9°C° 0 mm 1 m/s 753 mmHg 78%
    10:00 +9°C° 0 mm 2 m/s 754 mmHg 71%
    11:00 +10°C° 0 mm 2 m/s 754 mmHg 68%
    12:00 +12°C° 0 mm 2 m/s 753 mmHg 65%
    13:00 +12°C° 0 mm 2 m/s 753 mmHg 62%
    14:00 +12°C° 0 mm 2 m/s 753 mmHg 64%
    15:00 +11°C° 0 mm 1 m/s 753 mmHg 67%
    16:00 +10°C° 0 mm 1 m/s 753 mmHg 70%
    17:00 +9°C° 0 mm 1 m/s 753 mmHg 74%
    18:00 +8°C° 0 mm 1 m/s 753 mmHg 78%
    19:00 +7°C° 0 mm 1 m/s 753 mmHg 83%
    20:00 +6°C° 0 mm 2 m/s 753 mmHg 84%
    21:00 +6°C° 0 mm 2 m/s 753 mmHg 86%
    22:00 +5°C° 0 mm 2 m/s 753 mmHg 87%
    23:00 +5°C° 0 mm 2 m/s 753 mmHg 88%

    Demain, 22 Octobre, Lundi

    Heure Température Précipitation Vent Pression Humidité
    00:00 +4°C° 0 mm 3 m/s 753 mmHg 89%
    01:00 +4°C° 0 mm 3 m/s 752 mmHg 90%
    02:00 +4°C° 0 mm 3 m/s 752 mmHg 91%
    03:00 +4°C° 0 mm 3 m/s 752 mmHg 91%
    04:00 +4°C° 0 mm 3 m/s 751 mmHg 92%
    05:00 +4°C° 0 mm 3 m/s 751 mmHg 92%
    06:00 +4°C° 0 mm 3 m/s 751 mmHg 92%
    07:00 +4°C° 0 mm 4 m/s 751 mmHg 91%
    08:00 +6°C° 0 mm 4 m/s 751 mmHg 84%
    09:00 +7°C° 0 mm 4 m/s 750 mmHg 77%
    10:00 +9°C° 0 mm 5 m/s 750 mmHg 70%
    11:00 +9°C° 0 mm 5 m/s 749 mmHg 68%
    12:00 +10°C° 0 mm 5 m/s 749 mmHg 67%
    13:00 +10°C° 0 mm 5 m/s 748 mmHg 65%
    14:00 +10°C° 0.2 mm 5 m/s 748 mmHg 71%
    15:00 +9°C° 0.2 mm 5 m/s 748 mmHg 77%
    16:00 +8°C° 0.2 mm 5 m/s 748 mmHg 83%
    17:00 +8°C° 0.2 mm 4 m/s 748 mmHg 84%
    18:00 +7°C° 0.2 mm 4 m/s 748 mmHg 84%
    19:00 +7°C° 0.2 mm 4 m/s 748 mmHg 85%
    20:00 +6°C° 0 mm 4 m/s 748 mmHg 85%
    21:00 +5°C° 0 mm 3 m/s 748 mmHg 86%
    22:00 +4°C° 0 mm 3 m/s 748 mmHg 86%
    23:00 +4°C° 0 mm 3 m/s 748 mmHg 86%

    Après-demain, 23 Octobre, Mardi

    Heure Température Précipitation Vent Pression Humidité
    00:00 +3°C° 0 mm 3 m/s 748 mmHg 85%
    01:00 +3°C° 0 mm 3 m/s 748 mmHg 84%
    02:00 +3°C° 0 mm 3 m/s 747 mmHg 84%
    03:00 +3°C° 0 mm 3 m/s 747 mmHg 84%
    04:00 +3°C° 0 mm 3 m/s 746 mmHg 84%
    05:00 +3°C° 0 mm 4 m/s 746 mmHg 84%
    06:00 +3°C° 0 mm 4 m/s 745 mmHg 85%
    07:00 +4°C° 0 mm 4 m/s 745 mmHg 85%
    08:00 +3°C° 0 mm 5 m/s 744 mmHg 80%
    09:00 +4°C° 0 mm 6 m/s 743 mmHg 76%
    10:00 +5°C° 0 mm 7 m/s 742 mmHg 71%
    11:00 +5°C° 0.4 mm 8 m/s 740 mmHg 72%
    12:00 +5°C° 0.4 mm 9 m/s 738 mmHg 72%
    13:00 +5°C° 0.4 mm 9 m/s 737 mmHg 73%
    14:00 +5°C° 1.5 mm 10 m/s 735 mmHg 76%
    15:00 +3°C° 1.5 mm 10 m/s 733 mmHg 78%
    16:00 +3°C° 1.5 mm 10 m/s 731 mmHg 81%
    17:00 +3°C° 1.4 mm 10 m/s 729 mmHg 83%
    18:00 +5°C° 1.4 mm 9 m/s 727 mmHg 85%
    19:00 +5°C° 1.4 mm 9 m/s 726 mmHg 87%
    20:00 +5°C° 1.2 mm 8 m/s 725 mmHg 87%
    21:00 +6°C° 1.2 mm 7 m/s 724 mmHg 88%
    22:00 +7°C° 1.2 mm 6 m/s 724 mmHg 88%
    23:00 +6°C° 0.4 mm 7 m/s 724 mmHg 85%

    24 Octobre, Mercredi

    Heure Température Précipitation Vent Pression Humidité
    00:00 +5°C° 0.4 mm 7 m/s 724 mmHg 82%
    01:00 +5°C° 0.4 mm 8 m/s 725 mmHg 80%
    02:00 +4°C° 0 mm 7 m/s 725 mmHg 77%
    03:00 +3°C° 0 mm 7 m/s 726 mmHg 74%
    04:00 +2°C° 0 mm 6 m/s 727 mmHg 71%
    05:00 +2°C° 0 mm 6 m/s 727 mmHg 71%
    06:00 +1°C° 0 mm 6 m/s 728 mmHg 71%
    07:00 +1°C° 0 mm 6 m/s 728 mmHg 71%
    08:00 +1°C° 0.2 mm 8 m/s 728 mmHg 68%
    09:00 +2°C° 0.2 mm 9 m/s 728 mmHg 66%
    10:00 +3°C° 0.2 mm 11 m/s 728 mmHg 64%
    11:00 +3°C° 0.4 mm 11 m/s 728 mmHg 65%
    12:00 +3°C° 0.4 mm 11 m/s 728 mmHg 66%
    13:00 +3°C° 0.4 mm 12 m/s 728 mmHg 67%
    14:00 +3°C° 0.5 mm 12 m/s 729 mmHg 69%
    15:00 +3°C° 0.5 mm 11 m/s 729 mmHg 70%
    16:00 +3°C° 0.5 mm 11 m/s 730 mmHg 72%
    17:00 +3°C° 0.5 mm 11 m/s 730 mmHg 72%
    18:00 +3°C° 0.5 mm 11 m/s 731 mmHg 71%
    19:00 +3°C° 0.5 mm 10 m/s 731 mmHg 71%
    20:00 +3°C° 0.1 mm 10 m/s 732 mmHg 72%
    21:00 +2°C° 0.1 mm 9 m/s 733 mmHg 73%
    22:00 +2°C° 0.1 mm 8 m/s 733 mmHg 74%
    23:00 +2°C° 0.1 mm 8 m/s 734 mmHg 75%

    25 Octobre, Jeudi

    Heure Température Précipitation Vent Pression Humidité
    00:00 +3°C° 0.1 mm 7 m/s 734 mmHg 76%
    01:00 +3°C° 0.1 mm 7 m/s 734 mmHg 77%
    02:00 +3°C° 0 mm 7 m/s 735 mmHg 78%
    03:00 +2°C° 0 mm 6 m/s 735 mmHg 79%
    04:00 +2°C° 0 mm 6 m/s 735 mmHg 80%
    05:00 +2°C° 0 mm 5 m/s 735 mmHg 81%
    06:00 +1°C° 0 mm 5 m/s 735 mmHg 82%
    07:00 +1°C° 0 mm 4 m/s 735 mmHg 83%
    08:00 +3°C° 0 mm 4 m/s 735 mmHg 77%
    09:00 +3°C° 0 mm 5 m/s 735 mmHg 71%
    10:00 +6°C° 0 mm 5 m/s 735 mmHg 65%
    11:00 +6°C° 0 mm 5 m/s 734 mmHg 66%
    12:00 +6°C° 0 mm 5 m/s 734 mmHg 67%
    13:00 +6°C° 0 mm 4 m/s 734 mmHg 68%
    14:00 +5°C° 0 mm 4 m/s 734 mmHg 72%
    15:00 +5°C° 0 mm 3 m/s 734 mmHg 76%
    16:00 +4°C° 0 mm 3 m/s 734 mmHg 80%
    17:00 +4°C° 0 mm 3 m/s 734 mmHg 84%
    18:00 +4°C° 0 mm 3 m/s 734 mmHg 87%
    19:00 +5°C° 0 mm 2 m/s 734 mmHg 90%
    20:00 +4°C° 0 mm 2 m/s 734 mmHg 91%
    21:00 +3°C° 0 mm 3 m/s 734 mmHg 93%
    22:00 +3°C° 0 mm 3 m/s 734 mmHg 94%
    23:00 +3°C° 0 mm 3 m/s 734 mmHg 94%

    26 Octobre, Vendredi

    Heure Température Précipitation Vent Pression Humidité
    00:00 +3°C° 0 mm 3 m/s 734 mmHg 93%
    01:00 +3°C° 0 mm 3 m/s 734 mmHg 93%
    02:00 +3°C° 0 mm 3 m/s 734 mmHg 92%
    03:00 +3°C° 0 mm 3 m/s 734 mmHg 92%
    04:00 +3°C° 0 mm 3 m/s 734 mmHg 92%
    05:00 +3°C° 0 mm 3 m/s 734 mmHg 92%
    06:00 +4°C° 0 mm 3 m/s 734 mmHg 92%
    07:00 +4°C° 0 mm 3 m/s 734 mmHg 92%
    08:00 +5°C° 0.1 mm 3 m/s 735 mmHg 87%
    09:00 +7°C° 0.1 mm 4 m/s 735 mmHg 82%
    10:00 +8°C° 0.1 mm 4 m/s 735 mmHg 77%
    11:00 +10°C° 0.1 mm 4 m/s 735 mmHg 75%
    12:00 +9°C° 0.1 mm 5 m/s 735 mmHg 73%
    13:00 +9°C° 0.1 mm 5 m/s 734 mmHg 71%
    14:00 +9°C° 0.5 mm 5 m/s 734 mmHg 77%
    15:00 +8°C° 0.5 mm 4 m/s 734 mmHg 83%
    16:00 +7°C° 0.5 mm 4 m/s 734 mmHg 90%
    17:00 +7°C° 0.4 mm 4 m/s 734 mmHg 89%
    18:00 +7°C° 0.4 mm 5 m/s 734 mmHg 88%
    19:00 +7°C° 0.4 mm 5 m/s 733 mmHg 87%
    20:00 +7°C° 0.1 mm 6 m/s 733 mmHg 87%
    21:00 +7°C° 0.1 mm 6 m/s 733 mmHg 86%
    22:00 +7°C° 0.1 mm 6 m/s 733 mmHg 86%
    23:00 +5°C° 0.1 mm 6 m/s 733 mmHg 87%
    Voir plus